Weather Roundup
Issued by NWS Springfield, MO

Home | Current Version | Previous Version | Text Only | Print | Product List | Glossary On
Versions: 1 2 3 4 5 6 7 8 9 10 11 12 13 14 15 16 17 18 19 20 21 22 23 24 25 26 27 28 29 30 31 32 33 34 35 36 37 38 39 40 41 42 43 44 45 46 47 48 49 50
000
NZUS99 KSGF 220059
HRRSGF

HOURLY WEATHER
NATIONAL WEATHER SERVICE SPRINGFIELD MO
800 PM CDT THU AUG 21 2014

......SGF CWA......

CITY           SKY/WX    TMP DP  RH WIND       PRES   REMARKS
SPRINGFIELD    CLEAR     87  66  49 SW9       29.97R
JOPLIN         CLEAR     87  69  54 S13       29.96R HX  91
WEST PLAINS    PTCLDY    85  66  53 S5        30.00S
ROLLA          CLEAR     83  69  62 S8        29.93S
OSAGE BEACH    PTCLDY    88  70  55 S3        29.91S HX  92
BRANSON        PTCLDY    84  68  58 S9        30.02R

......SURROUNDING SGF CWA......

CITY           SKY/WX    TMP DP  RH WIND       PRES   REMARKS
CHANUTE        CLEAR     88  71  57 S14       29.91S HX  94
PARSONS        CLEAR     88  72  58 S8        29.92S HX  94
COFFEYVILLE    CLEAR     88  72  58 S13G22    29.91R HX  94
EMPORIA        CLEAR     90  67  46 S14       29.87R HX  93
SILOAM SPRINGS CLEAR     82  66  57 S7        30.01S
HARRISON AR    CLEAR     81  70  69 S6        30.02S
NEAR YELLVILLE CLEAR     88  64  45 S6        30.00R

......KANSAS AND MISSOURI......

CITY           SKY/WX    TMP DP  RH WIND       PRES   REMARKS
KANSAS CTY INT PTCLDY    87  72  60 S12       29.85S HX  93
DOWNTOWN KC    CLEAR     91  72  53 S9        29.84R HX  98
COLUMBIA       MOCLDY    87  73  62 S5        29.90F HX  94
SEDALIA        MOCLDY    87  74  64 S5        29.89F HX  95
ST JOSEPH      CLEAR     85  76  74 S7        29.82S HX  94
ST LOUIS       MOCLDY    92  71  50 S5        29.92S HX  98
SPIRIT OF STL  PTCLDY    83  78  85 CALM      29.89S HX  93
KIRKSVILLE     PTCLDY    80  76  87 S6        29.89F
WICHITA        CLEAR     91  67  44 S20       29.85R HX  94
TOPEKA         CLEAR     95  69  42 S9G17     29.84R HX 100
OLATHE         CLEAR     88  72  58 S9        29.87R HX  94

......TENNESSEE......

CITY           SKY/WX    TMP DP  RH WIND       PRES   REMARKS
MEMPHIS        PTCLDY    87  72  60 S7        30.05R HX  93
NASHVILLE      PTCLDY    86  71  60 SW3       30.05S HX  91

......ARKANSAS.......

CITY           SKY/WX    TMP DP  RH WIND       PRES   REMARKS
FAYETTEVILLE   CLEAR     82  70  66 S8        30.02R
FT SMITH       CLEAR     88  73  61 S5        29.98R HX  95
LITTLE ROCK    MOCLDY    84  73  69 S7        30.03R HX  90

......OKLAHOMA.......

CITY           SKY/WX    TMP DP  RH WIND       PRES   REMARKS
TULSA          PTCLDY    90  71  53 S17       29.91R HX  96
PONCA CITY     CLEAR     92  69  47 S16G22    29.87S HX  97
MCALESTER      CLEAR     87  72  60 VRB6      29.97R HX  93
OKLAHOMA CITY  CLEAR     91  70  49 S17G24    29.91R HX  96

......IOWA............

CITY           SKY/WX    TMP DP  RH WIND       PRES   REMARKS
DES MOINES     PTCLDY    84  76  76 S5        29.84S HX  93
QUAD CITIES    MOCLDY    81  73  76 CALM      29.87F

......ILLINOIS........

CITY           SKY/WX    TMP DP  RH WIND       PRES   REMARKS
QUINCY         CLEAR     85  77  77 S3        29.90S HX  95
CHICAGO        MOCLDY    76  71  85 S3        29.91R



USA.gov is the U.S. government's official web portal to all federal, state and local government web resources and services.